1499184000.34,28215,16.63,74190.0,3.05,1.89,1.89,0,*77
1499184001.59,28216,16.63,74188.3,3.07,1.97,1.89,0,*79
1499184002.82,28217,16.63,74184.3,3.05,1.97,1.97,0,*75
1499184004.06,28218,16.63,74186.0,3.07,1.89,1.89,0,*78
1499184005.29,28219,16.63,74188.8,3.05,1.97,1.89,0,*74
1499184006.52,28220,16.63,74188.3,3.07,1.85,1.79,0,*70
1499184007.73,28221,16.63,74188.8,3.07,1.79,1.75,0,*7E
1499184008.94,28222,16.63,74186.5,3.05,1.85,1.75,0,*7C
1499184010.18,28223,16.63,74186.8,3.07,1.89,1.89,0,*70
1499184011.43,28224,16.69,74190.8,3.07,2.01,1.97,0,*7B
1499184012.69,28225,16.63,74186.5,3.07,1.97,1.85,0,*75
1499184013.91,28226,16.63,74190.8,3.09,1.93,1.93,0,*7B
1499184015.1,28227,16.63,74188.0,3.09,1.89,1.83,0,*70
1499184016.34,28228,16.63,74188.5,3.11,1.89,1.71,0,*7B
1499184017.52,28229,16.63,74186.8,3.09,1.79,1.79,0,*74
1499184018.74,28230,16.63,74186.0,3.11,1.89,1.79,0,*7A
1499184019.92,28231,16.63,74188.0,3.09,1.83,1.83,0,*7D
1499184021.11,28232,16.63,74186.8,3.09,1.83,1.71,0,*73
1499184022.36,28233,16.63,74184.8,3.11,1.71,1.67,0,*71
1499184023.58,28234,16.63,74184.3,3.11,1.79,1.67,0,*7E
1499184024.76,28235,16.63,74184.5,3.09,1.79,1.79,0,*79
1499184025.95,28236,16.69,74184.8,3.11,1.83,1.79,0,*76
1499184027.15,28237,16.63,74184.0,3.11,1.83,1.83,0,*72
1499184028.35,28238,16.63,74182.3,3.09,1.89,1.79,0,*7B
1499184029.55,28239,16.63,74182.8,3.09,1.89,1.79,0,*7A
1499184030.75,28240,16.63,74184.3,3.11,1.83,1.79,0,*77
1499184031.97,28241,16.63,74180.8,3.11,1.83,1.71,0,*7E
1499184033.19,28242,16.69,74184.0,3.11,1.79,1.71,0,*78
1499184034.41,28243,16.63,74180.8,3.11,1.79,1.71,0,*79
1499184035.62,28244,16.63,74182.0,3.11,1.83,1.71,0,*7B
1499184036.8,28245,16.63,74182.5,3.09,1.79,1.79,0,*7E
1499184038.0,28246,16.63,74184.0,3.11,1.79,1.79,0,*74
1499184039.25,28247,16.63,74182.0,3.11,1.71,1.71,0,*75
1499184040.5,28248,16.63,74180.0,3.11,1.71,1.67,0,*7D
1499184041.69,28249,16.69,74184.8,3.13,1.75,1.71,0,*7D
1499184042.87,28250,16.63,74182.3,3.13,1.83,1.83,0,*71
1499184044.07,28251,16.63,74182.5,3.11,1.83,1.79,0,*77
1499184045.27,28252,16.63,74182.5,3.11,1.79,1.79,0,*71
1499184046.5,28253,16.63,74180.3,3.11,1.71,1.79,0,*78
1499184047.68,28254,16.63,74180.0,3.13,1.83,1.75,0,*7C
1499184048.88,28255,16.69,74182.0,3.13,1.85,1.75,0,*7B
1499184050.13,28256,16.63,74182.3,3.11,1.71,1.71,0,*75
1499184051.37,28257,16.63,74176.3,3.11,1.59,1.59,0,*74
1499184052.57,28258,16.69,74180.8,3.13,1.75,1.71,0,*7D
1499184053.79,28259,16.69,74180.0,3.13,1.71,1.59,0,*72
1499184055.01,28260,16.63,74180.0,3.13,1.63,1.59,0,*7B
1499184056.23,28261,16.69,74182.8,3.13,1.71,1.63,0,*70
1499184057.46,28262,16.63,74182.0,3.13,1.71,1.63,0,*73
1499184058.68,28263,16.63,74180.0,3.13,1.63,1.59,0,*78
1499184059.9,28264,16.69,74180.8,3.13,1.71,1.63,0,*75
1499184061.15,28265,16.63,74180.5,3.11,1.67,1.55,0,*74
1499184062.37,28266,16.63,74176.8,3.13,1.71,1.63,0,*77
1499184063.6,28267,16.63,74178.3,3.13,1.59,1.55,0,*79
1499184064.84,28268,16.63,74180.5,3.11,1.43,1.33,0,*7F
1499184066.06,28269,16.63,74178.5,3.13,1.59,1.59,0,*7B
1499184067.29,28270,16.63,74180.8,3.13,1.55,1.55,0,*73
1499184068.51,28271,16.63,74180.8,3.11,1.43,1.41,0,*72
1499184069.73,28272,16.63,74180.3,3.11,1.41,1.33,0,*76
1499184070.99,28273,16.63,74182.3,3.11,1.33,1.21,0,*71
1499184072.23,28274,16.63,74182.0,3.11,1.51,1.43,0,*76
1499184073.45,28275,16.63,74178.8,3.09,1.59,1.55,0,*71
1499184074.67,28276,16.63,74184.5,3.09,1.55,1.43,0,*79
1499184075.89,28277,16.69,74186.3,3.09,1.59,1.55,0,*73
1499184077.11,28278,16.63,74186.3,3.11,1.51,1.41,0,*78
1499184078.33,28279,16.69,74184.3,3.11,1.41,1.33,0,*7D
1499184079.55,28280,16.63,74184.0,3.09,1.43,1.43,0,*77
1499184080.76,28281,16.63,74186.3,3.11,1.43,1.41,0,*7D
1499184082.0,28282,16.63,74182.8,3.11,1.51,1.43,0,*7F
1499184083.22,28283,16.69,74188.5,3.09,1.51,1.51,0,*74
1499184084.41,28284,16.63,74186.3,3.11,1.41,1.41,0,*7A
1499184085.63,28285,16.69,74186.3,3.09,1.43,1.29,0,*7E
1499184086.88,28286,16.63,74186.8,3.11,1.43,1.33,0,*7F
1499184088.1,28287,16.63,74184.0,3.09,1.51,1.51,0,*70
1499184089.32,28288,16.63,74186.5,3.09,1.51,1.55,0,*7B
1499184090.55,28289,16.63,74184.5,3.09,1.55,1.51,0,*7A
1499184091.76,28290,16.69,74188.8,3.09,1.51,1.43,0,*75
1499184092.98,28291,16.63,74186.5,3.09,1.51,1.43,0,*74
1499184094.24,28292,16.63,74184.8,3.11,1.33,1.29,0,*76
1499184095.49,28293,16.63,74186.5,3.11,1.33,1.29,0,*77
1499184096.72,28294,16.69,74190.3,3.09,1.29,1.17,0,*7F
1499184097.96,28295,16.63,74186.0,3.09,1.29,1.21,0,*7B
1499184099.18,28296,16.63,74190.3,3.11,1.41,1.33,0,*7C
1499184100.4,28297,16.63,74188.0,3.09,1.43,1.43,0,*71
1499184101.6,28298,16.69,74188.0,3.09,1.41,1.33,0,*7B
1499184102.86,28299,16.69,74190.0,3.07,1.37,1.29,0,*7E
1499184104.12,28300,16.69,74188.8,3.07,1.37,1.37,0,*70
1499184105.36,28301,16.69,74188.8,3.05,1.29,1.29,0,*73
1499184106.61,28302,16.69,74188.0,3.07,1.25,1.25,0,*72
1499184107.86,28303,16.63,74184.8,3.07,1.25,1.13,0,*76
1499184109.13,28304,16.63,74186.5,3.07,1.29,1.17,0,*79
1499184110.36,28305,16.63,74184.5,3.05,1.29,1.17,0,*7A
1499184111.6,28306,16.63,74182.8,3.05,1.37,1.37,0,*74
1499184112.86,28307,16.63,74176.0,3.07,1.37,1.29,0,*78
1499184114.09,28308,16.69,74180.8,3.07,1.41,1.37,0,*79
1499184115.33,28309,16.63,74180.8,3.05,1.29,1.29,0,*7B
1499184116.59,28310,16.63,74184.3,3.07,1.37,1.29,0,*7E
1499184117.79,28311,16.63,74184.8,3.05,1.41,1.25,0,*70
1499184119.05,28312,16.69,74190.8,3.07,1.29,1.25,0,*7F
1499184120.29,28313,16.69,74188.5,3.05,1.37,1.29,0,*7F
1499184121.49,28314,16.63,74184.0,3.07,1.41,1.41,0,*75
1499184122.71,28315,16.63,74184.5,3.05,1.47,1.47,0,*76
1499184123.93,28316,16.63,74186.0,3.05,1.47,1.47,0,*75
1499184125.15,28317,16.63,74186.8,3.05,1.51,1.47,0,*73
1499184126.38,28318,16.63,74186.8,3.05,1.47,1.47,0,*7B
1499184127.61,28319,16.69,74188.8,3.05,1.55,1.47,0,*79
1499184128.83,28320,16.63,74186.8,3.05,1.63,1.47,0,*76
1499184130.08,28321,16.69,74190.0,3.07,1.63,1.47,0,*75
1499184131.33,28322,16.63,74186.8,3.07,1.51,1.47,0,*77
1499184132.55,28323,16.69,74188.3,3.05,1.47,1.47,0,*73
1499184133.75,28324,16.63,74188.3,3.05,1.51,1.41,0,*75
1499184134.97,28325,16.63,74188.0,3.05,1.51,1.51,0,*75
1499184136.17,28326,16.63,74190.0,3.05,1.47,1.41,0,*70
1499184137.39,28327,16.63,74188.3,3.07,1.51,1.41,0,*74
1499184138.62,28328,16.63,74190.8,3.05,1.47,1.37,0,*7F
1499184139.85,28329,16.63,74188.3,3.05,1.37,1.17,0,*7B
1499184141.06,28330,16.69,74192.0,3.05,1.41,1.37,0,*70
1499184142.26,28331,16.63,74186.3,3.05,1.47,1.41,0,*76
1499184143.5,28332,16.63,74190.5,3.05,1.37,1.37,0,*73
1499184144.76,28333,16.63,74184.8,3.07,1.29,1.25,0,*7C
1499184146.02,28334,16.63,74186.0,3.07,1.37,1.29,0,*78
1499184147.26,28335,16.63,74184.5,3.07,1.51,1.47,0,*71
1499184148.49,28336,16.63,74184.8,3.05,1.51,1.47,0,*70
1499184149.73,28337,16.63,74184.3,3.07,1.51,1.47,0,*73
1499184150.91,28338,16.69,74190.0,3.05,1.41,1.41,0,*79
1499184152.15,28339,16.63,74184.0,3.05,1.37,1.37,0,*78
1499184153.34,28340,16.69,74188.5,3.05,1.47,1.41,0,*70
1499184154.54,28341,16.63,74184.8,3.05,1.47,1.41,0,*71
1499184155.77,28342,16.63,74188.3,3.05,1.51,1.37,0,*74
1499184156.96,28343,16.69,74188.0,3.05,1.51,1.41,0,*74
1499184158.19,28344,16.63,74186.8,3.05,1.47,1.37,0,*75
1499184159.45,28345,16.63,74184.5,3.07,1.25,1.17,0,*70
1499184160.68,28346,16.63,74184.0,3.07,1.13,1.05,0,*75
1499184161.89,28347,16.69,74184.8,3.05,1.13,1.05,0,*76
1499184163.16,28348,16.63,74182.5,3.07,1.13,1.13,0,*7C
1499184164.39,28349,16.63,74182.3,3.05,1.29,1.25,0,*73
1499184165.63,28350,16.69,74184.5,3.05,1.29,1.25,0,*7B
1499184166.83,28351,16.63,74180.3,3.05,1.41,1.29,0,*78
1499184168.07,28352,16.63,74180.8,3.05,1.37,1.37,0,*75
1499184169.24,28353,16.63,74176.3,3.05,1.41,1.41,0,*74
1499184170.44,28354,16.69,74184.0,3.05,1.47,1.41,0,*75
1499184171.63,28355,16.63,74180.3,3.05,1.51,1.41,0,*73
1499184172.83,28356,16.69,74182.3,3.05,1.51,1.41,0,*70
1499184174.05,28357,16.63,74180.0,3.05,1.51,1.47,0,*77
1499184175.25,28358,16.63,74176.0,3.05,1.51,1.41,0,*7E
1499184176.48,28359,16.69,74180.5,3.05,1.51,1.51,0,*7E
1499184177.7,28360,16.63,74180.8,3.05,1.51,1.47,0,*73
1499184178.89,28361,16.63,74176.8,3.05,1.47,1.41,0,*73
1499184180.15,28362,16.63,74180.0,3.07,1.47,1.37,0,*73
1499184181.34,28363,16.69,74180.8,3.05,1.47,1.41,0,*71
1499184182.57,28364,16.69,74182.5,3.05,1.51,1.37,0,*70
1499184183.83,28365,16.69,74182.8,3.07,1.47,1.37,0,*74
1499184185.02,28366,16.63,74178.8,3.05,1.47,1.41,0,*74
1499184186.22,28367,16.63,74178.5,3.05,1.47,1.41,0,*75
1499184187.45,28368,16.63,74176.0,3.05,1.51,1.51,0,*7C
1499184188.7,28369,16.63,74178.5,3.07,1.63,1.63,0,*7F
1499184189.92,28370,16.63,74176.5,3.05,1.63,1.63,0,*75
1499184191.18,28371,16.69,74178.5,3.07,1.63,1.55,0,*73
1499184192.41,28372,16.69,74176.8,3.05,1.55,1.55,0,*77
1499184193.66,28373,16.69,74180.3,3.07,1.63,1.63,0,*74
1499184194.89,28374,16.63,74176.5,3.05,1.67,1.63,0,*75
1499184196.11,28375,16.69,74176.0,3.05,1.67,1.63,0,*74
1499184197.34,28376,16.69,74178.3,3.05,1.67,1.55,0,*72
1499184198.58,28377,16.69,74176.0,3.07,1.67,1.63,0,*74
1499184199.82,28378,16.69,74178.5,3.05,1.55,1.51,0,*79
1499184201.05,28379,16.69,74178.5,3.07,1.41,1.37,0,*7F
1499184202.3,28380,16.69,74176.0,3.07,1.47,1.29,0,*70
1499184203.53,28381,16.63,74172.0,3.05,1.37,1.17,0,*79
1499184204.76,28382,16.69,74176.3,3.05,1.47,1.37,0,*7F
1499184205.99,28383,16.63,74174.5,3.05,1.51,1.37,0,*79
1499184207.24,28384,16.69,74176.0,3.05,1.37,1.37,0,*7E
1499184208.44,28385,16.63,74172.3,3.05,1.41,1.37,0,*7E
1499184209.67,28386,16.63,74172.8,3.05,1.47,1.37,0,*7B
1499184210.91,28387,16.63,74172.8,3.05,1.37,1.37,0,*7D
1499184212.15,28388,16.69,74176.8,3.01,1.33,1.21,0,*75
1499184213.39,28389,16.63,74172.5,3.05,1.37,1.25,0,*70
1499184214.62,28390,16.63,74174.8,3.01,1.33,1.17,0,*79
1499184215.86,28391,16.69,74176.0,3.05,1.29,1.25,0,*76
1499184217.08,28392,16.69,74174.8,2.97,1.09,0.97,0,*45
1499184218.28,28393,16.69,74178.3,3.01,1.05,0.95,0,*44
1499184219.51,28394,16.69,74176.3,2.97,1.09,0.97,0,*43
1499184220.71,28395,16.69,74176.8,2.97,1.05,0.97,0,*4E
1499184221.93,28396,16.69,74176.0,2.97,1.05,0.95,0,*4F
1499184223.19,28397,16.63,74176.3,2.97,1.21,1.17,0,*73
1499184224.46,28398,16.63,74178.3,2.97,1.21,1.09,0,*73
1499184225.69,28399,16.69,74178.3,2.97,1.09,1.05,0,*74
1499184226.92,28400,16.63,74178.5,2.97,1.09,0.97,0,*49
1499184228.18,28401,16.63,74178.3,2.97,1.21,1.09,0,*74
1499184229.45,28402,16.69,74186.8,2.97,1.29,1.21,0,*75
1499184230.71,28403,16.63,74178.5,2.97,1.21,1.21,0,*7C
1499184231.91,28404,16.63,74178.8,2.95,1.41,1.37,0,*78
1499184233.14,28405,16.63,74176.5,2.95,1.51,1.51,0,*78
1499184234.35,28406,16.69,74176.8,2.95,1.51,1.43,0,*78
1499184235.6,28407,16.69,74178.5,2.97,1.59,1.55,0,*74
1499184236.82,28408,16.69,74180.8,2.97,1.43,1.41,0,*75
1499184238.08,28409,16.69,74178.8,2.97,1.33,1.17,0,*70
1499184239.34,28410,16.63,74174.8,2.97,1.43,1.33,0,*79
1499184240.59,28411,16.69,74178.5,2.97,1.47,1.43,0,*7B
1499184241.84,28412,16.69,74180.0,2.97,1.43,1.33,0,*7B
1499184243.09,28413,16.69,74180.5,2.97,1.43,1.29,0,*71
1499184244.32,28414,16.63,74176.3,3.01,1.55,1.55,0,*74
1499184245.57,28415,16.63,74176.8,2.97,1.71,1.67,0,*7C
1499184246.79,28416,16.69,74182.0,3.01,1.71,1.59,0,*7C
1499184248.01,28417,16.69,74184.8,3.01,1.67,1.59,0,*7A
1499184249.26,28418,16.69,74182.5,2.97,1.59,1.59,0,*76
1499184250.48,28419,16.63,74182.0,3.01,1.67,1.59,0,*74
1499184251.72,28420,16.63,74182.0,2.97,1.59,1.59,0,*7D
1499184252.91,28421,16.69,74184.3,3.05,1.79,1.79,0,*76
1499184254.1,28422,16.69,74186.5,3.01,1.79,1.71,0,*79
1499184255.3,28423,16.63,74182.3,3.01,1.79,1.71,0,*78
1499184256.51,28424,16.63,74182.0,3.01,1.71,1.79,0,*7F
1499184257.73,28425,16.69,74186.5,3.05,1.89,1.89,0,*72
1499184258.97,28426,16.69,74186.5,3.07,1.89,1.97,0,*7C
1499184260.22,28427,16.63,74182.5,3.07,2.01,1.97,0,*7E
1499184261.48,28428,16.63,74180.3,3.07,2.09,2.09,0,*7D
1499184262.72,28429,16.69,74186.8,3.07,1.89,1.89,0,*7C
1499184263.92,28430,16.69,74188.3,3.07,1.75,1.75,0,*74
1499184265.17,28431,16.69,74186.3,3.07,1.67,1.67,0,*75
1499184266.42,28432,16.63,74184.8,3.07,1.63,1.63,0,*76
1499184267.68,28433,16.63,74184.5,3.07,1.63,1.55,0,*72
1499184268.92,28434,16.63,74180.8,3.07,1.67,1.63,0,*74
1499184270.14,28435,16.69,74184.8,3.09,1.67,1.67,0,*7F
1499184271.36,28436,16.69,74182.5,3.09,1.67,1.59,0,*71
1499184272.56,28437,16.63,74180.0,3.09,1.79,1.67,0,*72
1499184273.75,28438,16.69,74182.5,3.13,1.83,1.71,0,*74
1499184274.95,28439,16.69,74182.3,3.13,1.75,1.71,0,*7C
1499184276.14,28440,16.69,74178.8,3.09,1.51,1.41,0,*7C
1499184277.33,28441,16.69,74182.0,3.09,1.43,1.41,0,*7E
1499184278.55,28442,16.63,74176.8,3.09,1.43,1.33,0,*78
1499184279.76,28443,16.63,74176.8,3.09,1.59,1.59,0,*7E
1499184280.98,28444,16.63,74176.3,3.09,1.67,1.67,0,*79
1499184282.2,28445,16.69,74178.0,3.09,1.71,1.71,0,*78
1499184283.42,28446,16.69,74176.3,3.11,1.79,1.71,0,*7A
1499184284.64,28447,16.63,74176.8,3.09,1.71,1.71,0,*7A
1499184285.86,28448,16.63,74178.5,3.11,1.79,1.71,0,*74
1499184287.06,28449,16.63,74174.8,3.11,1.83,1.79,0,*78
1499184288.26,28450,16.69,74176.0,3.11,1.83,1.79,0,*70
1499184289.48,28451,16.69,74178.8,3.11,1.89,1.79,0,*7B
1499184290.72,28452,16.69,74176.8,3.11,1.89,1.89,0,*77
1499184291.94,28453,16.69,74176.3,3.13,2.05,1.93,0,*78
1499184293.19,28454,16.69,74176.0,3.15,2.05,1.97,0,*7D
1499184294.41,28455,16.63,74174.0,3.15,1.97,1.83,0,*71
1499184295.66,28456,16.69,74176.8,3.15,2.05,1.97,0,*7F
1499184296.9,28457,16.69,74176.3,3.15,1.97,1.97,0,*76
1499184298.1,28458,16.69,74176.8,3.15,1.75,1.75,0,*79
1499184299.35,28459,16.69,74178.3,3.15,1.71,1.63,0,*7B
1499184300.59,28460,16.69,74174.8,3.15,1.71,1.63,0,*71
1499184301.81,28461,16.63,74170.3,3.13,1.63,1.71,0,*76
1499184303.01,28462,16.69,74172.0,3.15,1.83,1.75,0,*79
1499184304.26,28463,16.63,74174.3,3.19,2.01,1.97,0,*71
1499184305.51,28464,16.69,74172.5,3.15,1.93,1.85,0,*71
1499184306.75,28465,16.69,74174.5,3.19,2.01,1.89,0,*78
1499184307.98,28466,16.63,74174.0,3.17,1.85,1.85,0,*76
1499184309.21,28467,16.69,74174.3,3.17,1.97,1.85,0,*74
1499184310.46,28468,16.69,74178.8,3.19,2.13,2.01,0,*75
1499184311.71,28469,16.63,74172.8,3.19,2.01,1.93,0,*7F
1499184312.95,28470,16.69,74180.3,3.19,1.93,1.93,0,*7F
1499184314.2,28471,16.69,74178.0,3.19,1.93,1.89,0,*75
1499184315.42,28472,16.69,74182.5,3.21,2.01,1.93,0,*7E
1499184316.64,28473,16.69,74180.8,3.21,2.13,1.93,0,*7C
1499184317.87,28474,16.69,74182.3,3.25,1.97,1.85,0,*77
1499184319.09,28475,16.69,74180.8,3.21,1.93,1.89,0,*7A
1499184320.31,28476,16.69,74184.8,3.25,1.97,1.93,0,*72
1499184321.54,28477,16.69,74186.0,3.25,2.17,2.09,0,*78
1499184322.77,28478,16.69,74186.0,3.25,2.17,2.21,0,*7D
1499184323.96,28479,16.63,74182.5,3.25,2.27,2.21,0,*7F
1499184325.19,28480,16.69,74188.0,3.27,2.27,2.09,0,*71
1499184326.39,28481,16.69,74188.0,3.29,2.31,2.21,0,*73
1499184327.59,28482,16.63,74188.3,3.29,2.31,2.21,0,*70
1499184328.82,28483,16.69,74194.3,3.29,2.25,2.01,0,*76
1499184330.04,28484,16.69,74190.8,3.29,2.13,1.89,0,*77
1499184331.29,28485,16.69,74188.0,3.31,2.01,1.85,0,*70
1499184332.54,28486,16.69,74190.5,3.31,1.97,1.71,0,*74
1499184333.79,28487,16.63,74186.5,3.33,2.05,1.67,0,*78
1499184335.05,28488,16.69,74190.8,3.33,1.93,1.51,0,*7E
1499184336.28,28489,16.69,74188.3,3.33,1.63,1.05,0,*71
1499184337.54,28490,16.69,74190.5,3.33,1.43,1.09,0,*77
1499184338.8,28491,16.69,74188.0,3.33,1.33,1.09,0,*71
1499184340.06,28492,16.63,74186.5,3.33,1.43,1.21,0,*7F
1499184341.31,28493,16.69,74186.0,3.37,1.71,1.59,0,*74
1499184342.56,28494,16.69,74180.5,3.37,1.71,1.59,0,*73
1499184343.81,28495,16.69,74180.0,3.37,1.71,1.47,0,*7D
1499184345.04,28496,16.69,74178.0,3.39,1.37,1.13,0,*73
1499184346.25,28497,16.69,74178.5,3.39,1.17,1.01,0,*73
1499184347.48,28498,16.63,74172.3,3.39,1.25,0.91,0,*45
1499184348.71,28499,16.69,74180.5,3.41,0.97,0.55,0,*7B
1499184349.94,28500,16.63,74174.3,3.41,0.97,0.79,0,*74
1499184351.19,28501,16.69,74174.8,3.41,0.55,0.55,0,*75
1499184352.43,28502,16.69,74170.3,3.41,0.51,0.63,0,*77
1499184353.68,28503,16.63,74166.3,3.41,0.51,0.63,0,*76
1499184354.9,28504,16.69,74168.0,3.41,0.43,0.55,0,*77
1499184356.15,28505,16.69,74168.3,3.41,0.87,0.91,0,*76
1499184357.41,28506,16.69,74166.0,3.41,1.09,1.09,0,*72
1499184358.67,28507,16.63,74166.8,3.41,1.51,1.51,0,*73
1499184359.92,28508,16.63,74170.5,3.41,1.97,1.89,0,*73
1499184361.18,28509,16.69,74170.5,3.41,2.01,2.01,0,*7D
1499184362.4,28510,16.69,74170.8,3.43,2.01,1.93,0,*7F
1499184363.63,28511,16.63,74164.8,3.43,2.25,2.01,0,*70
1499184364.86,28512,16.69,74168.0,3.43,2.01,1.85,0,*7A
1499184366.06,28513,16.63,74164.3,3.43,1.79,1.63,0,*7F
1499184367.26,28514,16.69,74164.5,3.43,1.75,1.51,0,*75
1499184368.49,28515,16.69,74168.5,3.45,1.41,1.21,0,*72
1499184369.75,28516,16.69,74170.3,3.45,1.29,1.17,0,*7A
1499184370.98,28517,16.63,74170.3,3.45,1.05,1.17,0,*75
1499184372.24,28518,16.69,74172.8,3.45,1.13,1.17,0,*7D
1499184373.48,28519,16.69,74174.8,3.43,1.17,1.21,0,*7B
1499184374.71,28520,16.69,74172.8,3.45,1.51,1.79,0,*78
1499184375.96,28521,16.63,74174.0,3.45,1.51,1.85,0,*7A
1499184377.22,28522,16.63,74174.3,3.49,1.71,1.89,0,*7B
1499184378.47,28523,16.63,74174.0,3.49,1.71,1.89,0,*7A
1499184379.7,28524,16.63,74174.3,3.49,1.71,1.83,0,*77
1499184380.92,28525,16.69,74172.8,3.45,1.79,1.89,0,*78
1499184382.17,28526,16.69,74174.8,3.49,1.89,1.89,0,*78
1499184383.43,28527,16.69,74174.0,3.49,1.97,1.93,0,*7D
1499184384.63,28528,16.69,74174.0,3.49,1.83,1.79,0,*73
1499184385.89,28529,16.63,74174.0,3.49,1.71,1.67,0,*70
1499184387.1,28530,16.69,74176.5,3.49,1.83,1.83,0,*7F
1499184388.33,28531,16.69,74178.3,3.49,1.89,1.79,0,*71
1499184389.58,28532,16.69,74180.0,3.49,1.67,1.55,0,*7C
1499184390.8,28533,16.69,74178.0,3.45,1.51,1.41,0,*71
1499184392.03,28534,16.69,74178.5,3.43,1.43,1.33,0,*76
1499184393.28,28535,16.63,74174.5,3.45,1.55,1.43,0,*71
1499184394.53,28536,16.69,74178.0,3.49,1.55,1.43,0,*7E
1499184395.79,28537,16.69,74176.5,3.45,1.43,1.33,0,*73
1499184397.02,28538,16.69,74180.8,3.43,1.55,1.51,0,*79
1499184398.27,28539,16.69,74176.3,3.45,1.67,1.55,0,*7B
1499184399.49,28540,16.69,74174.5,3.43,1.63,1.51,0,*73
1499184400.69,28541,16.69,74172.8,3.43,1.55,1.41,0,*76
1499184401.92,28542,16.63,74168.3,3.43,1.55,1.51,0,*74
1499184403.15,28543,16.69,74174.8,3.43,1.43,1.29,0,*7D
1499184404.34,28544,16.69,74174.8,3.43,1.43,1.41,0,*74
1499184405.56,28545,16.69,74178.3,3.43,1.55,1.43,0,*70
1499184406.79,28546,16.69,74176.0,3.41,1.59,1.41,0,*7F
1499184408.02,28547,16.69,74176.0,3.41,1.75,1.63,0,*70
1499184409.25,28548,16.69,74176.0,3.41,1.75,1.51,0,*7E
1499184410.44,28549,16.69,74176.0,3.39,1.63,1.41,0,*76
1499184411.69,28550,16.63,74174.5,3.41,1.63,1.47,0,*77
1499184412.89,28551,16.69,74176.0,3.39,1.83,1.63,0,*71
1499184414.13,28552,16.69,74178.0,3.41,1.85,1.75,0,*7C
1499184415.39,28553,16.63,74176.3,3.41,1.85,1.71,0,*79
1499184416.58,28554,16.69,74178.8,3.39,1.83,1.59,0,*7D
1499184417.78,28555,16.69,74176.3,3.39,1.83,1.59,0,*7C
1499184419.01,28556,16.63,74174.5,3.41,1.75,1.51,0,*71
1499184420.21,28557,16.63,74178.8,3.39,1.83,1.63,0,*77
1499184421.44,28558,16.69,74182.0,3.39,1.97,1.85,0,*75
1499184422.67,28559,16.69,74178.8,3.39,1.97,1.85,0,*74
1499184423.92,28560,16.69,74178.3,3.41,2.01,1.89,0,*71
1499184425.16,28561,16.63,74176.5,3.41,2.01,1.83,0,*7A
1499184426.38,28562,16.69,74180.0,3.39,1.85,1.71,0,*74
1499184427.62,28563,16.69,74182.8,3.39,1.97,1.85,0,*7D
1499184428.84,28564,16.69,74182.0,3.39,1.97,1.89,0,*76
1499184430.06,28565,16.69,74182.3,3.39,2.09,1.97,0,*7C
1499184431.31,28566,16.69,74184.3,3.41,2.01,1.89,0,*77
1499184432.54,28567,16.63,74182.3,3.39,2.01,1.97,0,*76
1499184433.76,28568,16.69,74180.5,3.39,2.09,1.97,0,*71
1499184434.98,28569,16.69,74180.3,3.39,2.01,1.97,0,*78
1499184436.24,28570,16.63,74182.0,3.41,2.09,1.97,0,*77
1499184437.49,28571,16.69,74184.8,3.41,2.09,2.01,0,*7A
1499184438.72,28572,16.69,74184.5,3.39,2.09,2.01,0,*76
1499184439.95,28573,16.69,74186.5,3.39,2.09,2.01,0,*77
1499184441.17,28574,16.69,74190.8,3.39,2.13,2.09,0,*73
1499184442.43,28575,16.63,74184.5,3.41,2.13,2.01,0,*75
1499184443.63,28576,16.69,74188.0,3.39,2.01,1.83,0,*73
1499184444.84,28577,16.69,74188.0,3.39,1.85,1.83,0,*7D
1499184446.05,28578,16.69,74192.3,3.39,1.85,1.75,0,*7B
1499184447.26,28579,16.69,74188.8,3.39,1.97,1.83,0,*70
1499184448.46,28580,16.69,74192.8,3.39,1.97,1.83,0,*76
1499184449.67,28581,16.69,74188.3,3.39,1.97,1.75,0,*7E
1499184450.87,28582,16.69,74190.8,3.39,1.75,1.59,0,*7F
1499184452.06,28583,16.69,74188.8,3.39,1.83,1.59,0,*77
1499184453.26,28584,16.63,74190.0,3.39,1.63,1.41,0,*77
1499184454.48,28585,16.69,74192.3,3.39,1.63,1.47,0,*70
1499184455.68,28586,16.69,74192.8,3.39,1.83,1.63,0,*7B
1499184456.94,28587,16.69,74194.5,3.37,1.55,1.33,0,*7A
1499184458.2,28588,16.69,74188.3,3.37,1.55,1.37,0,*71
1499184459.44,28589,16.69,74188.0,3.37,1.59,1.43,0,*7F
1499184460.7,28590,16.69,74190.5,3.37,1.47,1.33,0,*7F
1499184461.95,28591,16.69,74190.8,3.37,1.43,1.37,0,*7E
1499184463.2,28592,16.69,74188.8,3.37,1.43,1.43,0,*7E
1499184464.45,28593,16.69,74188.5,3.37,1.71,1.71,0,*7F
1499184465.66,28594,16.69,74186.8,3.37,1.79,1.83,0,*7D
1499184466.89,28595,16.69,74188.3,3.37,1.71,1.79,0,*71
1499184468.14,28596,16.69,74188.5,3.37,1.71,1.59,0,*70
1499184469.38,28597,16.69,74184.3,3.37,1.59,1.47,0,*74
1499184470.61,28598,16.69,74180.8,3.37,1.79,1.59,0,*76
1499184471.85,28599,16.69,74184.0,3.37,1.59,1.43,0,*7E
1499184473.11,28600,16.69,74188.3,3.37,1.25,1.21,0,*72
1499184474.37,28601,16.69,74188.3,3.37,1.55,1.43,0,*70
1499184475.63,28602,16.69,74186.5,3.37,1.21,1.09,0,*7E
1499184476.89,28603,16.63,74184.3,3.37,1.33,1.13,0,*77
1499184478.12,28604,16.69,74186.8,3.35,1.25,1.13,0,*75
1499184479.35,28605,16.69,74186.3,3.37,1.13,0.97,0,*4E
1499184480.59,28606,16.69,74186.5,3.37,1.09,1.05,0,*7C
1499184481.79,28607,16.69,74186.0,3.35,1.09,0.97,0,*45
1499184483.01,28608,16.69,74186.5,3.35,0.95,0.83,0,*7B
1499184484.22,28609,16.69,74184.5,3.35,0.97,0.83,0,*78
1499184485.44,28610,16.69,74180.0,3.35,0.95,0.83,0,*72
1499184486.69,28611,16.69,74180.8,3.33,0.91,0.83,0,*71
1499184487.94,28612,16.69,74180.8,3.33,0.79,0.71,0,*79
1499184489.2,28613,16.63,74178.5,3.33,0.91,0.79,0,*76
1499184490.44,28614,16.69,74182.0,3.31,0.91,0.79,0,*73
1499184491.68,28615,16.69,74184.0,3.31,0.87,0.63,0,*7E
1499184492.9,28616,16.69,74184.5,3.31,0.51,0.43,0,*74
1499184494.09,28617,16.69,74182.0,3.29,0.63,0.43,0,*7D
1499184495.31,28618,16.69,74182.0,3.29,0.63,0.51,0,*71
1499184496.52,28619,16.69,74182.8,3.29,0.41,0.41,0,*71
1499184497.73,28620,16.69,74188.8,3.29,0.51,0.41,0,*7A
1499184498.97,28621,16.69,74186.8,3.27,0.51,0.41,0,*75
1499184500.21,28622,16.69,74186.0,3.27,0.59,0.51,0,*7F
1499184501.44,28623,16.69,74184.3,3.27,0.63,0.59,0,*7F
1499184502.68,28624,16.63,74180.8,3.27,0.63,0.59,0,*78
1499184503.92,28625,16.69,74184.3,3.27,0.63,0.71,0,*73
1499184505.15,28626,16.69,74182.5,3.27,0.71,0.75,0,*77
1499184506.36,28627,16.69,74182.8,3.25,0.75,0.75,0,*70
1499184507.58,28628,16.69,74182.8,3.25,0.87,0.83,0,*7B
1499184508.8,28629,16.63,74178.3,3.21,0.79,0.71,0,*72
1499184510.02,28630,16.69,74184.0,3.21,0.83,0.79,0,*77
1499184511.24,28631,16.63,74180.3,3.21,0.83,0.71,0,*7E
1499184512.46,28632,16.69,74170.0,3.21,0.79,0.59,0,*72
1499184513.68,28633,16.69,74170.0,3.21,0.83,0.55,0,*7A
1499184514.91,28634,16.69,74168.5,3.21,0.91,0.59,0,*72
1499184516.11,28635,16.69,74170.3,3.21,0.59,0.33,0,*7B
1499184517.3,28636,16.69,74172.0,3.21,0.37,-0.03,0,*6E
1499184518.52,28637,16.69,74170.5,3.17,0.29,-0.23,0,*57
1499184519.69,28638,16.69,74168.5,3.17,-0.07,-0.69,0,*47
1499184520.89,28639,16.69,74170.8,3.17,0.09,-1.05,0,*5E
1499184522.11,28640,16.69,74170.5,3.17,-0.11,-1.91,0,*49
1499184523.33,28641,16.63,74164.0,3.13,-1.09,-3.63,0,*7B
1499184524.57,28642,16.69,74172.5,3.13,-1.83,-3.63,0,*7A
1499184525.78,28643,16.69,74166.8,3.15,-1.71,-2.39,0,*7E
1499184527.0,28644,16.69,74162.8,3.13,-1.13,-1.51,0,*76
1499184528.21,28645,16.69,74160.3,3.13,-0.97,-1.71,0,*48
1499184529.4,28646,16.69,74156.0,3.13,-1.21,-2.87,0,*7D
1499184530.62,28647,16.69,74158.8,3.13,-1.47,-4.25,0,*72
1499184531.83,28648,16.69,74162.0,3.11,-2.35,-4.99,0,*7E
1499184533.04,28649,16.69,74166.5,3.09,-3.03,-4.69,0,*7D
1499184534.25,28650,16.69,74156.5,3.09,-2.55,-2.91,0,*76